Home   Weather   Güssing   Past weeks

Flag for Austria Past Weather in Güssing, Burgenland, Austria — Yesterday and Last 2 Weeks

Now
85 °F

Sunny.


Feels Like: 85 °F
Forecast: 62 / 85 °F
Wind: 1 mph from Southeast

Location: Murska Sobota

Current Time: Aug 16, 2017 at 5:29:06 pm

Latest Report: Aug 16, 2017 at 3:00 pm


Visibility: N/A

Pressure: 30.07 "Hg

Humidity: 43%

Dew Point: 60 °F

Location of GüssingLocation

Past Weather in Güssing — Graph

°F

Güssing Temperature Yesterday

Maximum temperature yesterday: 84 °F (at 5:00 pm)
Minimum temperature yesterday: 56 °F (at 6:00 am)
Average temperature yesterday: 70 °F

High & Low Weather Summary for the Past Weeks

 TemperatureHumidityPressure
High99 °F (Aug 4, 6:00 pm)99% (Aug 10, 7:00 am)30.19 "Hg (Aug 10, 7:00 am)
Low55 °F (Aug 13, 6:00 am)33% (Aug 4, 4:00 pm)29.77 "Hg (Aug 4, 7:00 pm)
Average74 °F73%30.01 "Hg
* Reported Aug 1 3:00 pm — Aug 16 3:00 pm, Güssing. Weather by CustomWeather, © 2017

Note: Actual official high and low records may vary slightly from our data, if they occured in-between our weather recording intervals... More about our weather records

Advertising

Güssing Weather History for the Previous 24 Hours

Scroll right to see more
 ConditionsComfort  
Time TempWeatherWind HumidityBarometerVisibility
3:00 pm
Wed, Aug 16
85 °FSunny.1 mph43%30.07 "HgN/A
2:00 pm84 °FPassing clouds.2 mph45%30.09 "HgN/A
1:00 pm82 °FPassing clouds.1 mph47%30.10 "HgN/A
12:00 pm81 °FSunny.1 mph54%30.11 "HgN/A
11:00 am77 °FSunny.1 mph60%30.12 "HgN/A
10:00 am73 °FSunny.1 mph69%30.11 "HgN/A
9:00 am69 °FSunny.1 mph79%30.11 "HgN/A
8:00 am64 °FSunny.No wind86%30.11 "HgN/A
7:00 am59 °FSunny.1 mph96%30.11 "HgN/A
6:00 am57 °FSunny.1 mph97%30.11 "HgN/A
5:00 am58 °FClear.1 mph97%30.11 "HgN/A
4:00 am58 °FClear.No wind96%30.11 "HgN/A
3:00 am59 °FClear.1 mph95%30.11 "HgN/A
2:00 am60 °FClear.1 mph95%30.11 "HgN/A
1:00 am62 °FClear.1 mph95%30.12 "HgN/A
12:00 am63 °FClear.1 mph93%30.12 "HgN/A
11:00 pm
Tue, Aug 15
64 °FClear.No wind92%30.11 "HgN/A
10:00 pm66 °FClear.No wind88%30.11 "HgN/A
9:00 pm69 °FClear.1 mph81%30.10 "HgN/A
8:00 pm77 °FSunny.No wind69%30.08 "HgN/A
7:00 pm82 °FSunny.1 mph45%30.08 "HgN/A
6:00 pm84 °FSunny.1 mph44%30.08 "HgN/A
5:00 pm84 °FSunny.2 mph41%30.09 "HgN/A
Weather by CustomWeather, © 2017

See weather overviewHow to use our weather pages